Waukesha, WI

2:14 AM CST on November 23, 2017 (GMT -0600)
Waukesha County

Weather History for KUES - March, 2015

Change the Weather History Date:

Saturday, March 28, 2015

  Actual Average Record
Temperature  
Mean Temperature 26 °F -  
Max Temperature 37 °F 49 °F 74 °F (1968)
Min Temperature 14 °F 31 °F 8 °F (1970)
Degree Days  
Heating Degree Days 40    
Moisture  
Dew Point 12 °F    
Average Humidity 68    
Maximum Humidity 93    
Minimum Humidity 33    
Precipitation  
Precipitation 0.00 in - - ()
Sea Level Pressure  
Sea Level Pressure 30.26 in    
Wind  
Wind Speed 3 mph (SW)    
Max Wind Speed 12 mph    
Max Gust Speed -    
Visibility 10 miles    
Events      
Averages and records for this station are not official NWS values.
T = Trace of Precipitation, MM = Missing Value Source: NWS Daily Summary

Daily Weather History Graph

Daily Weather History Graph

Search for Another Location

Airport or City:

Trip Planner

Search our weather history database for the weather conditions in past years. The results will help you decide how hot, cold, wet, or windy it might be!

Date:

Astronomy

Mar. 28, 2015 Rise Set
Actual Time 6:42 AM CDT 7:14 PM CDT
Civil Twilight 6:13 AM CDT 7:42 PM CDT
Nautical Twilight 5:40 AM CDT 8:16 PM CDT
Astronomical Twilight 5:05 AM CDT 8:51 PM CDT
Moon 1:07 PM CDT (3/28) 2:55 AM CDT (3/28)
Length of Visible Light 13h 29m
Length of Day
12h 31m
Waxing Gibbous, 63% of the Moon is Illuminated
Mar 28
Waxing Gibbous
Apr 4
Full
Apr 11
Last Quarter
Apr 18
New
Apr 25
First Quarter

Hourly Weather History & Observations

Time (CDT) Temp. Windchill Dew Point Humidity Pressure Visibility Wind Dir Wind Speed Gust Speed Precip Events Conditions
12:15 AM 15.8 °F - 10.4 °F 79% 30.22 in 10.0 mi Calm Calm - N/A   Clear
12:35 AM 17.6 °F - 12.2 °F 79% 30.22 in 10.0 mi Calm Calm - N/A   Clear
12:55 AM 17.6 °F - 12.2 °F 79% 30.23 in 10.0 mi Calm Calm - N/A   Clear
1:15 AM 15.8 °F - 12.2 °F 86% 30.23 in 10.0 mi Calm Calm - N/A   Clear
1:35 AM 14.0 °F - 10.4 °F 86% 30.23 in 10.0 mi Calm Calm - N/A   Clear
1:55 AM 14.0 °F - 10.4 °F 86% 30.23 in 10.0 mi Calm Calm - N/A   Clear
2:15 AM 14.0 °F - 10.4 °F 86% 30.23 in 10.0 mi Calm Calm - N/A   Clear
2:35 AM 15.8 °F - 12.2 °F 86% 30.23 in 10.0 mi Calm Calm - N/A   Clear
2:55 AM 14.0 °F 8.2 °F 10.4 °F 86% 30.23 in 10.0 mi West 3.5 mph - N/A   Clear
3:15 AM 15.8 °F 10.2 °F 12.2 °F 86% 30.24 in 10.0 mi WNW 3.5 mph - N/A   Clear
3:35 AM 15.8 °F 10.2 °F 12.2 °F 86% 30.23 in 10.0 mi WNW 3.5 mph - N/A   Clear
3:55 AM 14.0 °F - 10.4 °F 86% 30.24 in 10.0 mi Calm Calm - N/A   Clear
4:15 AM 15.8 °F 10.2 °F 12.2 °F 86% 30.24 in 10.0 mi WNW 3.5 mph - N/A   Clear
4:35 AM 15.8 °F 10.2 °F 12.2 °F 86% 30.25 in 10.0 mi WNW 3.5 mph - N/A   Clear
4:55 AM 14.0 °F 8.2 °F 12.2 °F 93% 30.25 in 10.0 mi WNW 3.5 mph - N/A   Clear
5:15 AM 15.8 °F 8.6 °F 12.2 °F 86% 30.25 in 10.0 mi WNW 4.6 mph - N/A   Clear
5:35 AM 15.8 °F 10.2 °F 12.2 °F 86% 30.26 in 10.0 mi WNW 3.5 mph - N/A   Clear
5:45 AM 15.8 °F - 12.2 °F 86% 30.27 in 10.0 mi Calm Calm - N/A   Clear
6:45 AM 14.0 °F 6.5 °F 10.4 °F 86% 30.28 in 10.0 mi West 4.6 mph - N/A   Clear
7:45 AM 17.6 °F 10.7 °F 14.0 °F 86% 30.30 in 10.0 mi West 4.6 mph - N/A   Clear
8:45 AM 23.0 °F - 15.8 °F 74% 30.32 in 10.0 mi Calm Calm - N/A   Clear
9:45 AM 24.8 °F - 15.8 °F 69% 30.33 in 10.0 mi Calm Calm - N/A   Clear
10:45 AM 28.4 °F 23.3 °F 15.8 °F 59% 30.34 in 10.0 mi West 4.6 mph - N/A   Scattered Clouds
11:45 AM 30.2 °F 25.4 °F 12.2 °F 47% 30.34 in 10.0 mi WSW 4.6 mph - N/A   Scattered Clouds
12:45 PM 32.0 °F 27.5 °F 8.6 °F 38% 30.32 in 10.0 mi SSE 4.6 mph - N/A   Partly Cloudy
1:45 PM 33.8 °F 29.6 °F 8.6 °F 35% 30.30 in 10.0 mi North 4.6 mph - N/A   Partly Cloudy
2:45 PM 35.6 °F 31.7 °F 10.4 °F 35% 30.28 in 10.0 mi SSE 4.6 mph - N/A   Partly Cloudy
3:45 PM 37.4 °F 30.8 °F 10.4 °F 33% 30.27 in 10.0 mi SSW 9.2 mph - N/A   Partly Cloudy
4:45 PM 37.4 °F 30.8 °F 10.4 °F 33% 30.25 in 10.0 mi SW 9.2 mph - N/A   Clear
5:45 PM 35.6 °F 28.6 °F 8.6 °F 33% 30.25 in 10.0 mi SSW 9.2 mph - N/A   Clear
6:45 PM 33.8 °F 25.3 °F 15.8 °F 48% 30.24 in 10.0 mi SSE 11.5 mph - N/A   Clear
7:45 PM 28.4 °F 19.1 °F 14.0 °F 55% 30.25 in 10.0 mi SSE 10.4 mph - N/A   Clear
8:45 PM 26.6 °F 16.8 °F 12.2 °F 55% 30.26 in 10.0 mi SSE 10.4 mph - N/A   Clear
9:15 PM 26.6 °F 18.2 °F 12.2 °F 55% 30.26 in 10.0 mi South 8.1 mph - N/A   Clear
9:35 PM 26.6 °F 19.1 °F 12.2 °F 55% 30.25 in 10.0 mi South 6.9 mph - N/A   Clear
9:55 PM 26.6 °F 19.1 °F 12.2 °F 55% 30.25 in 10.0 mi South 6.9 mph - N/A   Clear
10:15 PM 26.6 °F 21.2 °F 12.2 °F 55% 30.25 in 10.0 mi South 4.6 mph - N/A   Clear
10:35 PM 24.8 °F 20.5 °F 12.2 °F 59% 30.25 in 10.0 mi South 3.5 mph - N/A   Clear
10:55 PM 24.8 °F 20.5 °F 12.2 °F 59% 30.25 in 10.0 mi SSW 3.5 mph - N/A   Clear
11:15 PM 24.8 °F - 12.2 °F 59% 30.24 in 10.0 mi Calm Calm - N/A   Clear
11:35 PM 24.8 °F 19.1 °F 12.2 °F 59% 30.24 in 10.0 mi South 4.6 mph - N/A   Clear
11:55 PM 23.0 °F 18.4 °F 12.2 °F 63% 30.23 in 10.0 mi South 3.5 mph - N/A   Clear